Time,TemperatureF,DewpointF,PressureIn,WindDirection,WindDirectionDegrees,WindSpeedMPH,WindSpeedGustMPH,Humidity,HourlyPrecipIn,Conditions,Clouds,dailyrainin,SoftwareType,DateUTC
2013-05-10 00:00:00,53.1,53.1,29.93,WSW,244,0.0,0.0,100,0.00,,,0.00,VWS V14.01,2013-05-10 04:00:00,
2013-05-10 00:01:00,53.1,53.1,29.93,WSW,244,0.0,0.0,100,0.00,,,0.00,VWS V14.01,2013-05-10 04:01:00,
2013-05-10 00:05:00,52.9,52.9,29.93,WSW,244,0.0,0.0,100,0.00,,CLR,0.00,VWS V14.01,2013-05-10 04:05:00,
2013-05-10 00:06:00,52.9,52.9,29.93,WSW,244,0.0,0.0,100,0.00,,,0.00,VWS V14.01,2013-05-10 04:06:00,
2013-05-10 00:10:00,52.8,52.8,29.93,WSW,244,0.0,0.0,100,0.00,,CLR,0.00,VWS V14.01,2013-05-10 04:10:00,
2013-05-10 00:11:00,52.8,52.8,29.93,WSW,244,0.0,0.0,100,0.00,,,0.00,VWS V14.01,2013-05-10 04:11:00,
2013-05-10 00:15:00,52.8,52.8,29.92,WSW,244,0.0,0.0,100,0.00,,CLR,0.00,VWS V14.01,2013-05-10 04:15:00,
2013-05-10 00:16:00,52.8,52.8,29.92,WSW,244,0.0,0.0,100,0.00,,,0.00,VWS V14.01,2013-05-10 04:16:00,
2013-05-10 00:20:00,52.8,52.8,29.92,WSW,244,0.0,0.0,100,0.00,,CLR,0.00,VWS V14.01,2013-05-10 04:20:00,
2013-05-10 00:21:00,52.8,52.8,29.92,WSW,244,0.0,0.0,100,0.00,,,0.00,VWS V14.01,2013-05-10 04:21:00,
2013-05-10 00:25:00,52.8,52.8,29.92,WSW,244,0.0,0.0,100,0.00,,CLR,0.00,VWS V14.01,2013-05-10 04:25:00,
2013-05-10 00:26:00,52.8,52.8,29.92,WSW,244,0.0,0.0,100,0.00,,,0.00,VWS V14.01,2013-05-10 04:26:00,
2013-05-10 00:30:00,52.6,52.6,29.93,WSW,244,0.0,0.0,100,0.00,,CLR,0.00,VWS V14.01,2013-05-10 04:30:00,
2013-05-10 00:31:00,52.6,52.6,29.93,WSW,244,0.0,0.0,100,0.00,,,0.00,VWS V14.01,2013-05-10 04:31:00,
2013-05-10 00:35:00,52.6,52.6,29.93,WSW,244,0.0,0.0,100,0.00,,CLR,0.00,VWS V14.01,2013-05-10 04:35:00,
2013-05-10 00:36:00,52.6,52.6,29.93,WSW,244,0.0,0.0,100,0.00,,,0.00,VWS V14.01,2013-05-10 04:36:00,
2013-05-10 00:40:00,52.3,52.3,29.93,WSW,244,0.0,0.0,100,0.00,,CLR,0.00,VWS V14.01,2013-05-10 04:40:00,
2013-05-10 00:41:00,52.3,52.3,29.93,WSW,244,0.0,0.0,100,0.00,,,0.00,VWS V14.01,2013-05-10 04:41:00,
2013-05-10 00:45:00,52.2,52.2,29.92,WSW,244,0.0,0.0,100,0.00,,CLR,0.00,VWS V14.01,2013-05-10 04:45:00,
2013-05-10 00:46:00,52.2,52.2,29.92,WSW,244,0.0,0.0,100,0.00,,,0.00,VWS V14.01,2013-05-10 04:46:00,
2013-05-10 00:50:00,52.0,52.0,29.92,WSW,244,0.0,0.0,100,0.00,,CLR,0.00,VWS V14.01,2013-05-10 04:50:00,
2013-05-10 00:51:00,52.0,52.0,29.92,WSW,244,0.0,0.0,100,0.00,,,0.00,VWS V14.01,2013-05-10 04:51:00,
2013-05-10 00:55:00,52.0,52.0,29.92,WSW,244,0.0,0.0,100,0.00,,CLR,0.00,VWS V14.01,2013-05-10 04:55:00,
2013-05-10 00:56:00,52.0,52.0,29.92,WSW,244,0.0,0.0,100,0.00,,,0.00,VWS V14.01,2013-05-10 04:56:00,
2013-05-10 01:00:00,52.0,52.0,29.92,WSW,244,0.0,0.0,100,0.00,,CLR,0.00,VWS V14.01,2013-05-10 05:00:00,
2013-05-10 01:01:00,52.0,52.0,29.92,WSW,244,0.0,0.0,100,0.00,,,0.00,VWS V14.01,2013-05-10 05:01:00,
2013-05-10 01:05:00,52.0,52.0,29.92,WSW,244,0.0,0.0,100,0.00,,CLR,0.00,VWS V14.01,2013-05-10 05:05:00,
2013-05-10 01:06:00,52.0,52.0,29.92,WSW,244,0.0,0.0,100,0.00,,,0.00,VWS V14.01,2013-05-10 05:06:00,
2013-05-10 01:10:00,52.2,52.2,29.92,WSW,244,0.0,0.0,100,0.00,,CLR,0.00,VWS V14.01,2013-05-10 05:10:00,
2013-05-10 01:11:00,52.0,52.0,29.92,WSW,244,0.0,0.0,100,0.00,,,0.00,VWS V14.01,2013-05-10 05:11:00,
2013-05-10 01:15:00,52.0,52.0,29.92,WSW,244,0.0,0.0,100,0.00,,CLR,0.00,VWS V14.01,2013-05-10 05:15:00,
2013-05-10 01:16:00,52.0,52.0,29.92,WSW,244,0.0,0.0,100,0.00,,,0.00,VWS V14.01,2013-05-10 05:16:00,
2013-05-10 01:20:00,52.0,52.0,29.92,WSW,244,0.0,0.0,100,0.00,,CLR,0.00,VWS V14.01,2013-05-10 05:20:00,
2013-05-10 01:21:00,52.0,52.0,29.92,WSW,244,0.0,0.0,100,0.00,,,0.00,VWS V14.01,2013-05-10 05:21:00,
2013-05-10 01:25:00,52.0,52.0,29.92,WSW,244,0.0,0.0,100,0.00,,CLR,0.00,VWS V14.01,2013-05-10 05:25:00,
2013-05-10 01:26:00,52.0,52.0,29.92,WSW,244,0.0,0.0,100,0.00,,,0.00,VWS V14.01,2013-05-10 05:26:00,
2013-05-10 01:30:00,52.0,52.0,29.92,WSW,244,0.0,0.0,100,0.00,,CLR,0.00,VWS V14.01,2013-05-10 05:30:00,
2013-05-10 01:31:00,52.0,52.0,29.92,WSW,244,0.0,0.0,100,0.00,,,0.00,VWS V14.01,2013-05-10 05:31:00,
2013-05-10 01:35:00,51.9,51.9,29.92,WSW,244,0.0,0.0,100,0.00,,CLR,0.00,VWS V14.01,2013-05-10 05:35:00,
2013-05-10 01:36:00,51.9,51.9,29.92,WSW,244,0.0,0.0,100,0.00,,,0.00,VWS V14.01,2013-05-10 05:36:00,
2013-05-10 01:40:00,51.9,51.9,29.92,WSW,244,0.0,0.0,100,0.00,,CLR,0.00,VWS V14.01,2013-05-10 05:40:00,
2013-05-10 01:41:00,51.9,51.9,29.92,WSW,244,0.0,0.0,100,0.00,,,0.00,VWS V14.01,2013-05-10 05:41:00,
2013-05-10 01:45:00,51.9,51.9,29.92,WSW,244,0.0,0.0,100,0.00,,CLR,0.00,VWS V14.01,2013-05-10 05:45:00,
2013-05-10 01:46:00,51.9,51.9,29.92,WSW,244,0.0,0.0,100,0.00,,,0.00,VWS V14.01,2013-05-10 05:46:00,
2013-05-10 01:50:00,51.7,51.7,29.92,WSW,244,0.0,1.0,100,0.00,,CLR,0.00,VWS V14.01,2013-05-10 05:50:00,
2013-05-10 01:51:00,51.7,51.7,29.92,WSW,244,0.0,0.0,100,0.00,,,0.00,VWS V14.01,2013-05-10 05:51:00,
2013-05-10 01:55:00,51.7,51.7,29.92,WSW,244,0.0,0.0,100,0.00,,CLR,0.00,VWS V14.01,2013-05-10 05:55:00,
2013-05-10 01:56:00,51.6,51.6,29.92,WSW,244,0.0,0.0,100,0.00,,,0.00,VWS V14.01,2013-05-10 05:56:00,
2013-05-10 02:00:00,51.6,51.6,29.92,WSW,244,0.0,0.0,100,0.00,,CLR,0.00,VWS V14.01,2013-05-10 06:00:00,
2013-05-10 02:01:00,51.6,51.6,29.92,WSW,244,0.0,0.0,100,0.00,,,0.00,VWS V14.01,2013-05-10 06:01:00,
2013-05-10 02:05:00,51.6,51.6,29.92,WSW,244,0.0,0.0,100,0.00,,CLR,0.00,VWS V14.01,2013-05-10 06:05:00,
2013-05-10 02:06:00,51.6,51.6,29.92,WSW,244,0.0,0.0,100,0.00,,,0.00,VWS V14.01,2013-05-10 06:06:00,
2013-05-10 02:10:00,51.6,51.6,29.92,WSW,244,0.0,0.0,100,0.00,,CLR,0.00,VWS V14.01,2013-05-10 06:10:00,
2013-05-10 02:11:00,51.4,51.4,29.92,WSW,244,0.0,0.0,100,0.00,,,0.00,VWS V14.01,2013-05-10 06:11:00,
2013-05-10 02:15:00,51.4,51.4,29.92,WSW,244,0.0,0.0,100,0.00,,CLR,0.00,VWS V14.01,2013-05-10 06:15:00,
2013-05-10 02:16:00,51.4,51.4,29.92,WSW,244,0.0,0.0,100,0.00,,,0.00,VWS V14.01,2013-05-10 06:16:00,
2013-05-10 02:20:00,51.3,51.3,29.92,WSW,244,0.0,0.0,100,0.00,,CLR,0.00,VWS V14.01,2013-05-10 06:20:00,
2013-05-10 02:21:00,51.3,51.3,29.92,WSW,244,0.0,0.0,100,0.00,,,0.00,VWS V14.01,2013-05-10 06:21:00,
2013-05-10 02:25:00,51.3,51.3,29.92,WSW,244,0.0,0.0,100,0.00,,CLR,0.00,VWS V14.01,2013-05-10 06:25:00,
2013-05-10 02:26:00,51.3,51.3,29.92,WSW,244,0.0,0.0,100,0.00,,,0.00,VWS V14.01,2013-05-10 06:26:00,
2013-05-10 02:30:00,51.3,51.3,29.92,WSW,244,0.0,0.0,100,0.00,,CLR,0.00,VWS V14.01,2013-05-10 06:30:00,
2013-05-10 02:31:00,51.3,51.3,29.92,WSW,244,0.0,0.0,100,0.00,,,0.00,VWS V14.01,2013-05-10 06:31:00,
2013-05-10 02:35:00,51.2,51.2,29.92,WSW,244,0.0,0.0,100,0.00,,CLR,0.00,VWS V14.01,2013-05-10 06:35:00,
2013-05-10 02:36:00,51.2,51.2,29.92,WSW,244,0.0,0.0,100,0.00,,,0.00,VWS V14.01,2013-05-10 06:36:00,
2013-05-10 02:40:00,51.2,51.2,29.92,WSW,244,0.0,0.0,100,0.00,,CLR,0.00,VWS V14.01,2013-05-10 06:40:00,
2013-05-10 02:41:00,51.0,51.0,29.92,WSW,244,0.0,0.0,100,0.00,,,0.00,VWS V14.01,2013-05-10 06:41:00,
2013-05-10 02:45:00,51.0,51.0,29.92,WSW,244,0.0,0.0,100,0.00,,CLR,0.00,VWS V14.01,2013-05-10 06:45:00,
2013-05-10 02:46:00,51.0,51.0,29.92,WSW,244,0.0,0.0,100,0.00,,,0.00,VWS V14.01,2013-05-10 06:46:00,
2013-05-10 02:50:00,51.0,51.0,29.92,WSW,244,0.0,0.0,100,0.00,,CLR,0.00,VWS V14.01,2013-05-10 06:50:00,
2013-05-10 02:51:00,51.0,51.0,29.92,WSW,244,0.0,0.0,100,0.00,,,0.00,VWS V14.01,2013-05-10 06:51:00,
2013-05-10 02:55:00,51.0,51.0,29.92,WSW,244,0.0,0.0,100,0.00,,CLR,0.00,VWS V14.01,2013-05-10 06:55:00,
2013-05-10 02:56:00,51.0,51.0,29.92,WSW,244,0.0,0.0,100,0.00,,,0.00,VWS V14.01,2013-05-10 06:56:00,
2013-05-10 03:00:00,51.0,51.0,29.91,WSW,244,0.0,0.0,100,0.00,,CLR,0.00,VWS V14.01,2013-05-10 07:00:00,
2013-05-10 03:01:00,51.0,51.0,29.91,WSW,244,0.0,0.0,100,0.00,,,0.00,VWS V14.01,2013-05-10 07:01:00,
2013-05-10 03:05:00,51.0,51.0,29.91,WSW,244,0.0,0.0,100,0.00,,CLR,0.00,VWS V14.01,2013-05-10 07:05:00,
2013-05-10 03:06:00,51.0,51.0,29.91,WSW,244,0.0,0.0,100,0.00,,,0.00,VWS V14.01,2013-05-10 07:06:00,
2013-05-10 03:10:00,50.9,50.9,29.91,WSW,244,0.0,0.0,100,0.00,,CLR,0.00,VWS V14.01,2013-05-10 07:10:00,
2013-05-10 03:11:00,50.9,50.9,29.91,WSW,244,0.0,0.0,100,0.00,,,0.00,VWS V14.01,2013-05-10 07:11:00,
2013-05-10 03:15:00,50.9,50.9,29.91,WSW,244,0.0,0.0,100,0.00,,CLR,0.00,VWS V14.01,2013-05-10 07:15:00,
2013-05-10 03:16:00,50.9,50.9,29.91,WSW,244,0.0,0.0,100,0.00,,,0.00,VWS V14.01,2013-05-10 07:16:00,
2013-05-10 03:20:00,51.0,51.0,29.91,WSW,244,0.0,0.0,100,0.00,,CLR,0.00,VWS V14.01,2013-05-10 07:20:00,
2013-05-10 03:21:00,51.0,51.0,29.91,WSW,244,0.0,0.0,100,0.00,,,0.00,VWS V14.01,2013-05-10 07:21:00,
2013-05-10 03:25:00,51.0,51.0,29.91,WSW,244,0.0,0.0,100,0.00,,CLR,0.00,VWS V14.01,2013-05-10 07:25:00,
2013-05-10 03:26:00,51.0,51.0,29.91,WSW,244,0.0,0.0,100,0.00,,,0.00,VWS V14.01,2013-05-10 07:26:00,
2013-05-10 03:30:00,51.0,51.0,29.91,WSW,244,0.0,0.0,100,0.00,,CLR,0.00,VWS V14.01,2013-05-10 07:30:00,
2013-05-10 03:31:00,51.2,51.2,29.91,WSW,244,0.0,0.0,100,0.00,,,0.00,VWS V14.01,2013-05-10 07:31:00,
2013-05-10 03:35:00,51.2,51.2,29.91,WSW,244,0.0,0.0,100,0.00,,CLR,0.00,VWS V14.01,2013-05-10 07:35:00,
2013-05-10 03:36:00,51.2,51.2,29.91,WSW,244,0.0,0.0,100,0.00,,,0.00,VWS V14.01,2013-05-10 07:36:00,
2013-05-10 03:40:00,51.2,51.2,29.91,WSW,244,0.0,0.0,100,0.00,,CLR,0.00,VWS V14.01,2013-05-10 07:40:00,
2013-05-10 03:41:00,51.2,51.2,29.91,WSW,244,0.0,0.0,100,0.00,,,0.00,VWS V14.01,2013-05-10 07:41:00,
2013-05-10 03:45:00,51.2,51.2,29.91,WSW,244,0.0,0.0,100,0.00,,,0.00,VWS V14.01,2013-05-10 07:45:00,
2013-05-10 03:50:00,51.0,51.0,29.91,WSW,244,0.0,0.0,100,0.00,,,0.00,VWS V14.01,2013-05-10 07:50:00,
2013-05-10 03:55:00,51.0,51.0,29.91,WSW,244,0.0,0.0,100,0.00,,,0.00,VWS V14.01,2013-05-10 07:55:00,
2013-05-10 04:00:00,51.2,51.2,29.91,WSW,244,0.0,0.0,100,0.00,,,0.00,VWS V14.01,2013-05-10 08:00:00,
2013-05-10 04:05:00,51.0,51.0,29.91,WSW,244,0.0,0.0,100,0.00,,,0.00,VWS V14.01,2013-05-10 08:05:00,
2013-05-10 04:10:00,51.2,51.2,29.91,WSW,244,0.0,0.0,100,0.00,,,0.00,VWS V14.01,2013-05-10 08:10:00,
2013-05-10 04:15:00,51.0,51.0,29.91,WSW,244,0.0,0.0,100,0.00,,,0.00,VWS V14.01,2013-05-10 08:15:00,
2013-05-10 04:20:00,51.0,51.0,29.91,WSW,244,0.0,0.0,100,0.00,,,0.00,VWS V14.01,2013-05-10 08:20:00,
2013-05-10 04:25:00,50.9,50.9,29.91,WSW,244,0.0,0.0,100,0.00,,,0.00,VWS V14.01,2013-05-10 08:25:00,
2013-05-10 04:30:00,50.7,50.7,29.92,WSW,244,0.0,0.0,100,0.00,,,0.00,VWS V14.01,2013-05-10 08:30:00,
2013-05-10 04:35:00,50.6,50.6,29.92,WSW,244,0.0,0.0,100,0.00,,,0.00,VWS V14.01,2013-05-10 08:35:00,
2013-05-10 04:40:00,50.6,50.6,29.92,WSW,244,0.0,0.0,100,0.00,,,0.00,VWS V14.01,2013-05-10 08:40:00,
2013-05-10 04:45:00,50.6,50.6,29.92,WSW,244,0.0,0.0,100,0.00,,,0.00,VWS V14.01,2013-05-10 08:45:00,
2013-05-10 04:50:00,50.6,50.6,29.92,WSW,244,0.0,0.0,100,0.00,,,0.00,VWS V14.01,2013-05-10 08:50:00,
2013-05-10 04:55:00,50.6,50.6,29.92,WSW,244,0.0,0.0,100,0.00,,,0.00,VWS V14.01,2013-05-10 08:55:00,
2013-05-10 05:00:00,50.7,50.7,29.92,WSW,244,0.0,0.0,100,0.00,,,0.00,VWS V14.01,2013-05-10 09:00:00,
2013-05-10 05:05:00,50.7,50.7,29.92,WSW,244,0.0,0.0,100,0.00,,,0.00,VWS V14.01,2013-05-10 09:05:00,
2013-05-10 05:10:00,50.7,50.7,29.92,WSW,244,0.0,0.0,100,0.00,,,0.00,VWS V14.01,2013-05-10 09:10:00,
2013-05-10 05:15:00,50.7,50.7,29.92,WSW,244,0.0,0.0,100,0.00,,,0.00,VWS V14.01,2013-05-10 09:15:00,
2013-05-10 05:20:00,50.6,50.6,29.92,WSW,244,0.0,0.0,100,0.00,,,0.00,VWS V14.01,2013-05-10 09:20:00,
2013-05-10 05:25:00,50.4,50.4,29.92,WSW,244,0.0,0.0,100,0.00,,,0.00,VWS V14.01,2013-05-10 09:25:00,
2013-05-10 05:30:00,50.4,50.4,29.92,WSW,244,0.0,0.0,100,0.00,,,0.00,VWS V14.01,2013-05-10 09:30:00,
2013-05-10 05:35:00,50.4,50.4,29.92,WSW,244,0.0,0.0,100,0.00,,,0.00,VWS V14.01,2013-05-10 09:35:00,
2013-05-10 05:40:00,50.6,50.6,29.92,WSW,244,0.0,0.0,100,0.00,,,0.00,VWS V14.01,2013-05-10 09:40:00,
2013-05-10 05:45:00,50.6,50.6,29.93,WSW,244,0.0,0.0,100,0.00,,,0.00,VWS V14.01,2013-05-10 09:45:00,
2013-05-10 05:50:00,50.6,50.6,29.93,WSW,244,0.0,0.0,100,0.00,,,0.00,VWS V14.01,2013-05-10 09:50:00,
2013-05-10 05:55:00,50.6,50.6,29.93,WSW,244,0.0,0.0,100,0.00,,,0.00,VWS V14.01,2013-05-10 09:55:00,
2013-05-10 06:00:00,50.6,50.6,29.93,WSW,244,0.0,0.0,100,0.01,,,0.01,VWS V14.01,2013-05-10 10:00:00,
2013-05-10 06:05:00,50.6,50.6,29.93,WSW,244,0.0,0.0,100,0.01,,,0.01,VWS V14.01,2013-05-10 10:05:00,
2013-05-10 06:10:00,50.7,50.7,29.93,WSW,244,0.0,0.0,100,0.01,,,0.01,VWS V14.01,2013-05-10 10:10:00,
2013-05-10 06:15:00,50.9,50.9,29.94,WSW,244,0.0,0.0,100,0.01,,,0.01,VWS V14.01,2013-05-10 10:15:00,
2013-05-10 06:20:00,50.9,50.9,29.94,WSW,244,0.0,0.0,100,0.01,,,0.01,VWS V14.01,2013-05-10 10:20:00,
2013-05-10 06:25:00,51.0,51.0,29.94,WSW,244,0.0,0.0,100,0.01,,,0.01,VWS V14.01,2013-05-10 10:25:00,
2013-05-10 06:30:00,51.0,51.0,29.94,WSW,244,0.0,0.0,100,0.01,,,0.01,VWS V14.01,2013-05-10 10:30:00,
2013-05-10 06:35:00,51.2,51.2,29.94,WSW,244,0.0,0.0,100,0.01,,,0.01,VWS V14.01,2013-05-10 10:35:00,
2013-05-10 06:40:00,51.2,51.2,29.94,WSW,244,0.0,0.0,100,0.01,,,0.01,VWS V14.01,2013-05-10 10:40:00,
2013-05-10 06:45:00,51.2,51.2,29.94,WSW,244,0.0,0.0,100,0.01,,,0.01,VWS V14.01,2013-05-10 10:45:00,
2013-05-10 06:50:00,51.3,51.3,29.94,WSW,244,0.0,0.0,100,0.01,,,0.01,VWS V14.01,2013-05-10 10:50:00,
2013-05-10 06:55:00,51.4,51.4,29.94,WSW,244,0.0,0.0,100,0.01,,,0.01,VWS V14.01,2013-05-10 10:55:00,
2013-05-10 07:00:00,51.6,51.6,29.94,WSW,244,0.0,0.0,100,0.00,,,0.01,VWS V14.01,2013-05-10 11:00:00,
2013-05-10 07:05:00,51.6,51.6,29.94,WSW,244,0.0,1.0,100,0.00,,,0.01,VWS V14.01,2013-05-10 11:05:00,
2013-05-10 07:10:00,51.6,51.6,29.94,WSW,244,0.0,0.0,100,0.00,,,0.01,VWS V14.01,2013-05-10 11:10:00,
2013-05-10 07:15:00,51.6,51.6,29.94,WSW,244,0.0,0.0,100,0.00,,,0.01,VWS V14.01,2013-05-10 11:15:00,
2013-05-10 07:20:00,51.4,51.4,29.94,WSW,244,0.0,0.0,100,0.00,,,0.01,VWS V14.01,2013-05-10 11:20:00,
2013-05-10 07:25:00,51.6,51.6,29.94,WSW,244,0.0,0.0,100,0.00,,,0.01,VWS V14.01,2013-05-10 11:25:00,
2013-05-10 07:30:00,51.6,51.6,29.94,WSW,244,0.0,0.0,100,0.00,,,0.01,VWS V14.01,2013-05-10 11:30:00,
2013-05-10 07:35:00,51.9,51.9,29.94,WSW,244,0.0,0.0,100,0.00,,,0.01,VWS V14.01,2013-05-10 11:35:00,
2013-05-10 07:40:00,52.0,52.0,29.94,WSW,244,0.0,0.0,100,0.00,,,0.01,VWS V14.01,2013-05-10 11:40:00,
2013-05-10 07:45:00,52.2,52.2,29.94,WSW,244,0.0,0.0,100,0.00,,,0.01,VWS V14.01,2013-05-10 11:45:00,
2013-05-10 07:50:00,52.2,52.2,29.94,WSW,244,0.0,0.0,100,0.00,,,0.01,VWS V14.01,2013-05-10 11:50:00,
2013-05-10 07:55:00,52.2,52.2,29.94,WSW,244,0.0,0.0,100,0.00,,,0.01,VWS V14.01,2013-05-10 11:55:00,
2013-05-10 08:00:00,52.3,52.3,29.94,WSW,244,0.0,0.0,100,0.00,,,0.01,VWS V14.01,2013-05-10 12:00:00,
2013-05-10 08:05:00,52.5,52.5,29.94,WSW,244,0.0,0.0,100,0.00,,,0.01,VWS V14.01,2013-05-10 12:05:00,
2013-05-10 08:10:00,52.5,52.5,29.94,WSW,244,0.0,0.0,100,0.00,,,0.01,VWS V14.01,2013-05-10 12:10:00,
2013-05-10 08:15:00,52.6,52.6,29.94,WSW,244,0.0,0.0,100,0.00,,,0.01,VWS V14.01,2013-05-10 12:15:00,
2013-05-10 08:20:00,52.8,52.8,29.94,WSW,244,0.0,0.0,100,0.00,,,0.01,VWS V14.01,2013-05-10 12:20:00,
2013-05-10 08:25:00,52.8,52.8,29.94,WSW,244,0.0,0.0,100,0.00,,,0.01,VWS V14.01,2013-05-10 12:25:00,
2013-05-10 08:30:00,52.8,52.8,29.94,WSW,244,0.0,0.0,100,0.00,,,0.01,VWS V14.01,2013-05-10 12:30:00,
2013-05-10 08:35:00,52.9,52.9,29.94,WSW,244,0.0,0.0,100,0.00,,,0.01,VWS V14.01,2013-05-10 12:35:00,
2013-05-10 08:40:00,53.2,53.2,29.94,WSW,244,0.0,0.0,100,0.00,,,0.01,VWS V14.01,2013-05-10 12:40:00,
2013-05-10 08:45:00,53.2,53.2,29.94,WSW,244,0.0,0.0,100,0.00,,,0.01,VWS V14.01,2013-05-10 12:45:00,
2013-05-10 08:50:00,53.4,53.4,29.94,WSW,244,0.0,0.0,100,0.00,,,0.01,VWS V14.01,2013-05-10 12:50:00,
2013-05-10 08:55:00,53.5,53.5,29.94,WSW,244,0.0,0.0,100,0.00,,,0.01,VWS V14.01,2013-05-10 12:55:00,
2013-05-10 09:00:00,53.7,53.7,29.94,WSW,244,1.0,2.0,100,0.00,,,0.01,VWS V14.01,2013-05-10 13:00:00,
2013-05-10 09:05:00,53.7,53.7,29.94,WSW,244,0.0,0.0,100,0.00,,,0.01,VWS V14.01,2013-05-10 13:05:00,
2013-05-10 09:10:00,53.8,53.8,29.94,WSW,244,0.0,1.0,100,0.00,,,0.01,VWS V14.01,2013-05-10 13:10:00,
2013-05-10 09:15:00,53.8,53.8,29.94,WSW,244,0.0,0.0,100,0.00,,,0.01,VWS V14.01,2013-05-10 13:15:00,
2013-05-10 09:20:00,54.1,54.1,29.94,WSW,244,0.0,0.0,100,0.00,,,0.01,VWS V14.01,2013-05-10 13:20:00,
2013-05-10 09:25:00,54.4,54.4,29.94,WSW,244,0.0,0.0,100,0.00,,,0.01,VWS V14.01,2013-05-10 13:25:00,
2013-05-10 09:30:00,54.6,54.6,29.94,WSW,244,0.0,0.0,100,0.00,,,0.01,VWS V14.01,2013-05-10 13:30:00,
2013-05-10 09:35:00,54.8,54.5,29.94,WSW,244,0.0,0.0,99,0.00,,,0.01,VWS V14.01,2013-05-10 13:35:00,
2013-05-10 09:40:00,54.8,54.5,29.94,WSW,244,0.0,0.0,99,0.00,,,0.01,VWS V14.01,2013-05-10 13:40:00,
2013-05-10 09:45:00,55.3,55.0,29.94,WSW,244,0.0,0.0,99,0.00,,,0.01,VWS V14.01,2013-05-10 13:45:00,
2013-05-10 09:50:00,55.6,55.0,29.94,WSW,244,0.0,0.0,98,0.00,,,0.01,VWS V14.01,2013-05-10 13:50:00,
2013-05-10 09:55:00,55.9,55.3,29.94,WSW,244,0.0,0.0,98,0.00,,,0.01,VWS V14.01,2013-05-10 13:55:00,
2013-05-10 10:00:00,56.4,55.8,29.94,WSW,244,0.0,0.0,98,0.00,,,0.01,VWS V14.01,2013-05-10 14:00:00,
2013-05-10 10:05:00,56.8,56.0,29.94,WSW,244,0.0,0.0,97,0.00,,OVC004,0.01,VWS V14.01,2013-05-10 14:05:00,
2013-05-10 10:10:00,57.0,55.9,29.94,WSW,244,0.0,0.0,96,0.00,,OVC004,0.01,VWS V14.01,2013-05-10 14:10:00,
2013-05-10 10:15:00,57.0,55.6,29.95,WSW,244,0.0,0.0,95,0.00,,OVC004,0.01,VWS V14.01,2013-05-10 14:15:00,
2013-05-10 10:20:00,57.4,56.0,29.95,WSW,244,0.0,0.0,95,0.00,,OVC004,0.01,VWS V14.01,2013-05-10 14:20:00,
2013-05-10 10:25:00,57.9,56.2,29.95,WSW,244,0.0,0.0,94,0.00,,OVC004,0.01,VWS V14.01,2013-05-10 14:25:00,
2013-05-10 10:30:00,58.5,56.5,29.95,WSW,244,0.0,0.0,93,0.00,,OVC004,0.01,VWS V14.01,2013-05-10 14:30:00,
2013-05-10 10:35:00,59.0,56.4,29.95,WSW,244,0.0,3.0,91,0.00,,OVC006,0.01,VWS V14.01,2013-05-10 14:35:00,
2013-05-10 10:40:00,58.8,55.3,29.95,WSW,244,0.0,0.0,88,0.00,,OVC006,0.01,VWS V14.01,2013-05-10 14:40:00,
2013-05-10 10:45:00,59.3,55.8,29.95,WSW,244,0.0,0.0,88,0.00,,OVC006,0.01,VWS V14.01,2013-05-10 14:45:00,
2013-05-10 10:50:00,59.6,55.7,29.95,WSW,242,0.0,0.0,87,0.00,,OVC006,0.01,VWS V14.01,2013-05-10 14:50:00,
2013-05-10 10:55:00,60.1,55.9,29.95,WSW,242,0.0,0.0,86,0.00,,OVC006,0.01,VWS V14.01,2013-05-10 14:55:00,
2013-05-10 11:00:00,60.2,55.3,29.95,WSW,242,0.0,0.0,84,0.00,,OVC006,0.01,VWS V14.01,2013-05-10 15:00:00,
2013-05-10 11:05:00,60.4,55.5,29.95,WSW,242,0.0,0.0,84,0.00,,BKN015,0.01,VWS V14.01,2013-05-10 15:05:00,
2013-05-10 11:10:00,61.2,56.3,29.95,WSW,242,0.0,0.0,84,0.00,,BKN015,0.01,VWS V14.01,2013-05-10 15:10:00,
2013-05-10 11:15:00,62.0,56.1,29.95,ENE,77,0.0,0.0,81,0.00,,BKN013,0.01,VWS V14.01,2013-05-10 15:15:00,
2013-05-10 11:20:00,62.1,55.2,29.95,NE,49,0.0,0.0,78,0.00,,BKN013,0.01,VWS V14.01,2013-05-10 15:20:00,
2013-05-10 11:25:00,62.6,55.7,29.95,ENE,66,0.0,2.0,78,0.00,,SCT013,0.01,VWS V14.01,2013-05-10 15:25:00,
2013-05-10 11:30:00,62.8,55.5,29.94,NNE,18,0.0,0.0,77,0.00,,SCT013,0.01,VWS V14.01,2013-05-10 15:30:00,
2013-05-10 11:35:00,63.3,56.0,29.94,NNE,18,0.0,0.0,77,0.00,,SCT013,0.01,VWS V14.01,2013-05-10 15:35:00,
2013-05-10 11:40:00,63.9,56.2,29.94,NNE,18,0.0,0.0,76,0.00,,SCT013,0.01,VWS V14.01,2013-05-10 15:40:00,
2013-05-10 11:45:00,64.5,56.0,29.93,NNE,29,2.0,2.0,74,0.00,,SCT013,0.01,VWS V14.01,2013-05-10 15:45:00,
2013-05-10 11:50:00,64.5,56.0,29.93,SSW,197,0.0,1.0,74,0.00,,SCT013,0.01,VWS V14.01,2013-05-10 15:50:00,
2013-05-10 11:55:00,64.9,55.7,29.93,SSW,197,0.0,0.0,72,0.00,,SCT013,0.01,VWS V14.01,2013-05-10 15:55:00,
2013-05-10 12:00:00,65.2,56.0,29.92,SSW,197,0.0,0.0,72,0.00,,SCT013,0.01,VWS V14.01,2013-05-10 16:00:00,
2013-05-10 12:05:00,65.7,56.0,29.92,SSW,197,0.0,0.0,71,0.00,,CLR,0.01,VWS V14.01,2013-05-10 16:05:00,
2013-05-10 12:10:00,65.9,55.0,29.92,NE,43,0.0,0.0,68,0.00,,CLR,0.01,VWS V14.01,2013-05-10 16:10:00,
2013-05-10 12:15:00,66.0,55.2,29.92,NE,48,0.0,0.0,68,0.00,,CLR,0.01,VWS V14.01,2013-05-10 16:15:00,
2013-05-10 12:20:00,66.5,55.2,29.92,NE,48,0.0,0.0,67,0.00,,CLR,0.01,VWS V14.01,2013-05-10 16:20:00,
2013-05-10 12:25:00,67.0,55.7,29.92,NE,43,0.0,0.0,67,0.00,,CLR,0.01,VWS V14.01,2013-05-10 16:25:00,
2013-05-10 12:30:00,67.4,54.8,29.92,East,79,0.0,1.0,64,0.00,,CLR,0.01,VWS V14.01,2013-05-10 16:30:00,
2013-05-10 12:35:00,67.4,55.2,29.92,ENE,77,0.0,0.0,65,0.00,,CLR,0.01,VWS V14.01,2013-05-10 16:35:00,
2013-05-10 12:40:00,67.7,55.1,29.92,ENE,77,0.0,0.0,64,0.00,,CLR,0.01,VWS V14.01,2013-05-10 16:40:00,
2013-05-10 12:45:00,68.4,56.2,29.92,South,180,0.0,0.0,65,0.00,,CLR,0.01,VWS V14.01,2013-05-10 16:45:00,
2013-05-10 12:50:00,68.9,55.4,29.92,SSE,151,0.0,0.0,62,0.00,,CLR,0.01,VWS V14.01,2013-05-10 16:50:00,
2013-05-10 12:55:00,69.4,55.4,29.92,SSE,152,0.0,0.0,61,0.00,,CLR,0.01,VWS V14.01,2013-05-10 16:55:00,
2013-05-10 13:00:00,69.7,55.7,29.92,SSE,152,0.0,0.0,61,0.00,,CLR,0.01,VWS V14.01,2013-05-10 17:00:00,
2013-05-10 13:05:00,70.1,55.6,29.92,SSE,154,0.0,0.0,60,0.00,,CLR,0.01,VWS V14.01,2013-05-10 17:05:00,
2013-05-10 13:10:00,70.4,54.5,29.92,SSW,200,0.0,0.0,57,0.00,,CLR,0.01,VWS V14.01,2013-05-10 17:10:00,
2013-05-10 13:15:00,70.6,53.7,29.92,SSW,202,0.0,0.0,55,0.00,,CLR,0.01,VWS V14.01,2013-05-10 17:15:00,
2013-05-10 13:20:00,70.4,53.0,29.92,NE,53,0.0,1.0,54,0.00,,CLR,0.01,VWS V14.01,2013-05-10 17:20:00,
2013-05-10 13:25:00,70.1,52.2,29.92,NE,55,0.0,0.0,53,0.00,,CLR,0.01,VWS V14.01,2013-05-10 17:25:00,
2013-05-10 13:30:00,70.4,53.5,29.91,NE,56,0.0,0.0,55,0.00,,CLR,0.01,VWS V14.01,2013-05-10 17:30:00,
2013-05-10 13:35:00,70.6,52.1,29.91,NNW,336,0.0,2.0,52,0.00,,CLR,0.01,VWS V14.01,2013-05-10 17:35:00,
2013-05-10 13:40:00,70.8,52.3,29.91,NNW,336,0.0,1.0,52,0.00,,CLR,0.01,VWS V14.01,2013-05-10 17:40:00,
2013-05-10 13:45:00,71.1,52.1,29.91,ENE,69,0.0,2.0,51,0.00,,CLR,0.01,VWS V14.01,2013-05-10 17:45:00,
2013-05-10 13:50:00,71.3,51.2,29.91,ENE,69,0.0,0.0,49,0.00,,CLR,0.01,VWS V14.01,2013-05-10 17:50:00,
2013-05-10 13:55:00,71.4,52.3,29.91,ENE,69,0.0,0.0,51,0.00,,CLR,0.01,VWS V14.01,2013-05-10 17:55:00,
2013-05-10 14:00:00,71.6,52.0,29.91,NE,53,0.0,0.0,50,0.00,,CLR,0.01,VWS V14.01,2013-05-10 18:00:00,
2013-05-10 14:05:00,71.4,51.8,29.91,NE,35,0.0,0.0,50,0.00,,FEW040,0.01,VWS V14.01,2013-05-10 18:05:00,
2013-05-10 14:10:00,71.6,52.0,29.91,NE,35,0.0,0.0,50,0.00,,FEW040,0.01,VWS V14.01,2013-05-10 18:10:00,
2013-05-10 14:15:00,71.8,52.2,29.91,NE,35,0.0,0.0,50,0.00,,FEW040,0.01,VWS V14.01,2013-05-10 18:15:00,
2013-05-10 14:20:00,71.8,52.7,29.91,NE,35,0.0,0.0,51,0.00,,FEW040,0.01,VWS V14.01,2013-05-10 18:20:00,
2013-05-10 14:25:00,71.8,53.2,29.91,NE,35,0.0,0.0,52,0.00,,FEW040,0.01,VWS V14.01,2013-05-10 18:25:00,
2013-05-10 14:30:00,71.8,51.6,29.91,NE,35,0.0,0.0,49,0.00,,FEW040,0.01,VWS V14.01,2013-05-10 18:30:00,
2013-05-10 14:35:00,72.0,53.4,29.91,NE,35,0.0,0.0,52,0.00,,FEW040,0.01,VWS V14.01,2013-05-10 18:35:00,
2013-05-10 14:40:00,72.1,53.5,29.91,NE,35,0.0,0.0,52,0.00,,FEW040,0.01,VWS V14.01,2013-05-10 18:40:00,
2013-05-10 14:45:00,72.3,53.2,29.91,NNE,24,0.0,0.0,51,0.00,,FEW040,0.01,VWS V14.01,2013-05-10 18:45:00,
2013-05-10 14:50:00,72.5,53.9,29.91,West,268,0.0,0.0,52,0.00,,FEW040,0.01,VWS V14.01,2013-05-10 18:50:00,
2013-05-10 14:55:00,72.1,53.5,29.91,WSW,250,0.0,0.0,52,0.00,,FEW040,0.01,VWS V14.01,2013-05-10 18:55:00,
2013-05-10 15:00:00,71.8,54.3,29.91,WSW,251,0.0,0.0,54,0.00,,FEW040,0.01,VWS V14.01,2013-05-10 19:00:00,
2013-05-10 15:05:00,71.4,54.9,29.91,WNW,290,0.0,0.0,56,0.00,,BKN110,0.01,VWS V14.01,2013-05-10 19:05:00,
2013-05-10 15:10:00,70.8,56.2,29.91,WNW,286,0.0,0.0,60,0.00,,BKN110,0.01,VWS V14.01,2013-05-10 19:10:00,
2013-05-10 15:15:00,70.4,57.2,29.91,NNW,331,0.0,0.0,63,0.00,,BKN110,0.01,VWS V14.01,2013-05-10 19:15:00,
2013-05-10 15:20:00,69.9,55.8,29.91,NNW,327,0.0,0.0,61,0.00,,BKN110,0.01,VWS V14.01,2013-05-10 19:20:00,
2013-05-10 15:25:00,69.4,55.4,29.91,NNW,327,0.0,0.0,61,0.00,,BKN110,0.01,VWS V14.01,2013-05-10 19:25:00,
2013-05-10 15:30:00,69.2,55.2,29.91,NNW,327,0.0,0.0,61,0.00,,BKN110,0.01,VWS V14.01,2013-05-10 19:30:00,
2013-05-10 15:35:00,69.0,55.0,29.91,NNW,327,0.0,0.0,61,0.00,,BKN110,0.01,VWS V14.01,2013-05-10 19:35:00,
2013-05-10 15:40:00,69.0,55.5,29.91,NW,322,0.0,0.0,62,0.00,,BKN110,0.01,VWS V14.01,2013-05-10 19:40:00,
2013-05-10 15:45:00,69.4,55.8,29.91,NW,322,0.0,0.0,62,0.00,,BKN110,0.01,VWS V14.01,2013-05-10 19:45:00,
2013-05-10 15:50:00,70.1,56.5,29.91,NW,322,0.0,0.0,62,0.00,,BKN110,0.01,VWS V14.01,2013-05-10 19:50:00,
2013-05-10 15:55:00,70.4,56.8,29.91,NW,322,0.0,0.0,62,0.00,,BKN110,0.01,VWS V14.01,2013-05-10 19:55:00,
2013-05-10 16:00:00,70.6,56.1,29.91,NW,322,0.0,0.0,60,0.00,,BKN110,0.01,VWS V14.01,2013-05-10 20:00:00,
2013-05-10 16:05:00,70.8,55.8,29.91,WNW,303,0.0,0.0,59,0.00,,BKN110,0.01,VWS V14.01,2013-05-10 20:05:00,
2013-05-10 16:10:00,71.1,56.1,29.91,NNW,344,0.0,0.0,59,0.00,,BKN110,0.01,VWS V14.01,2013-05-10 20:10:00,
2013-05-10 16:15:00,70.8,55.8,29.92,NW,312,0.0,0.0,59,0.00,,BKN110,0.01,VWS V14.01,2013-05-10 20:15:00,
2013-05-10 16:20:00,70.8,56.7,29.92,SSE,152,0.0,0.0,61,0.00,,BKN110,0.01,VWS V14.01,2013-05-10 20:20:00,
2013-05-10 16:25:00,70.8,57.2,29.92,NE,50,1.0,1.0,62,0.00,,BKN110,0.01,VWS V14.01,2013-05-10 20:25:00,
2013-05-10 16:30:00,70.4,57.7,29.91,SSW,196,0.0,0.0,64,0.00,,BKN110,0.01,VWS V14.01,2013-05-10 20:30:00,
2013-05-10 16:35:00,70.4,57.7,29.91,SSW,196,0.0,0.0,64,0.00,,BKN110,0.01,VWS V14.01,2013-05-10 20:35:00,
2013-05-10 16:40:00,70.4,57.7,29.91,North,351,0.0,0.0,64,0.00,,BKN110,0.01,VWS V14.01,2013-05-10 20:40:00,
2013-05-10 16:45:00,70.1,57.8,29.91,North,351,0.0,0.0,65,0.00,,BKN110,0.01,VWS V14.01,2013-05-10 20:45:00,
2013-05-10 16:50:00,69.6,57.3,29.91,North,351,0.0,0.0,65,0.00,,BKN110,0.01,VWS V14.01,2013-05-10 20:50:00,
2013-05-10 16:55:00,69.2,57.4,29.91,North,351,0.0,0.0,66,0.00,,BKN110,0.01,VWS V14.01,2013-05-10 20:55:00,
2013-05-10 17:00:00,69.0,56.8,29.92,North,351,0.0,0.0,65,0.00,,BKN110,0.01,VWS V14.01,2013-05-10 21:00:00,
2013-05-10 17:05:00,68.9,56.2,29.92,North,351,0.0,0.0,64,0.00,,SCT100,0.01,VWS V14.01,2013-05-10 21:05:00,
2013-05-10 17:10:00,68.7,56.0,29.92,North,351,0.0,0.0,64,0.00,,SCT100,0.01,VWS V14.01,2013-05-10 21:10:00,
2013-05-10 17:15:00,68.7,56.0,29.93,North,351,0.0,0.0,64,0.00,,SCT100,0.01,VWS V14.01,2013-05-10 21:15:00,
2013-05-10 17:20:00,68.5,56.3,29.93,North,351,0.0,0.0,65,0.00,,SCT100,0.01,VWS V14.01,2013-05-10 21:20:00,
2013-05-10 17:25:00,68.5,56.7,29.93,North,351,0.0,0.0,66,0.00,,SCT100,0.01,VWS V14.01,2013-05-10 21:25:00,
2013-05-10 17:30:00,68.2,57.2,29.93,North,351,0.0,0.0,68,0.00,,SCT100,0.01,VWS V14.01,2013-05-10 21:30:00,
2013-05-10 17:35:00,68.2,57.7,29.93,North,351,0.0,0.0,69,0.00,,SCT100,0.01,VWS V14.01,2013-05-10 21:35:00,
2013-05-10 17:40:00,68.0,57.9,29.93,North,351,0.0,0.0,70,0.00,,SCT100,0.01,VWS V14.01,2013-05-10 21:40:00,
2013-05-10 17:45:00,67.9,58.2,29.92,North,351,0.0,0.0,71,0.00,,SCT100,0.01,VWS V14.01,2013-05-10 21:45:00,
2013-05-10 17:50:00,67.5,57.8,29.92,North,351,0.0,0.0,71,0.00,,SCT100,0.01,VWS V14.01,2013-05-10 21:50:00,
2013-05-10 17:55:00,67.4,58.1,29.92,North,351,0.0,0.0,72,0.00,,SCT100,0.01,VWS V14.01,2013-05-10 21:55:00,
2013-05-10 17:58:00,67.2,57.9,29.92,North,351,0.0,0.0,72,0.00,,SCT100,0.01,VWS V14.01,2013-05-10 21:58:00,
2013-05-10 18:00:00,67.2,57.9,29.93,North,351,0.0,0.0,72,0.00,,CLR,0.01,VWS V14.01,2013-05-10 22:00:00,
2013-05-10 18:03:00,67.0,58.1,29.93,North,351,0.0,0.0,73,0.00,,BKN110,0.01,VWS V14.01,2013-05-10 22:03:00,
2013-05-10 18:05:00,67.0,58.1,29.93,North,351,0.0,0.0,73,0.00,,CLR,0.01,VWS V14.01,2013-05-10 22:05:00,
2013-05-10 18:08:00,67.0,57.7,29.93,North,351,0.0,0.0,72,0.00,,BKN110,0.01,VWS V14.01,2013-05-10 22:08:00,
2013-05-10 18:10:00,66.9,58.0,29.93,North,351,0.0,0.0,73,0.00,,CLR,0.01,VWS V14.01,2013-05-10 22:10:00,
2013-05-10 18:13:00,66.9,57.6,29.93,North,351,0.0,0.0,72,0.00,,BKN110,0.01,VWS V14.01,2013-05-10 22:13:00,
2013-05-10 18:15:00,66.9,57.6,29.92,North,351,0.0,0.0,72,0.00,,CLR,0.01,VWS V14.01,2013-05-10 22:15:00,
2013-05-10 18:18:00,66.9,57.6,29.92,North,351,0.0,0.0,72,0.00,,BKN110,0.01,VWS V14.01,2013-05-10 22:18:00,
2013-05-10 18:20:00,66.7,57.4,29.92,North,351,0.0,0.0,72,0.00,,CLR,0.01,VWS V14.01,2013-05-10 22:20:00,
2013-05-10 18:23:00,66.7,57.0,29.92,North,351,0.0,0.0,71,0.00,,BKN110,0.01,VWS V14.01,2013-05-10 22:23:00,
2013-05-10 18:25:00,66.7,57.0,29.92,North,351,0.0,0.0,71,0.00,,CLR,0.01,VWS V14.01,2013-05-10 22:25:00,
2013-05-10 18:28:00,66.5,56.4,29.92,North,351,0.0,0.0,70,0.00,,BKN110,0.01,VWS V14.01,2013-05-10 22:28:00,
2013-05-10 18:30:00,66.5,56.4,29.93,North,351,0.0,0.0,70,0.00,,CLR,0.01,VWS V14.01,2013-05-10 22:30:00,
2013-05-10 18:33:00,66.5,56.4,29.93,North,351,0.0,0.0,70,0.00,,BKN110,0.01,VWS V14.01,2013-05-10 22:33:00,
2013-05-10 18:35:00,66.5,56.4,29.93,North,351,0.0,0.0,70,0.00,,CLR,0.01,VWS V14.01,2013-05-10 22:35:00,
2013-05-10 18:38:00,66.4,55.9,29.93,North,351,0.0,0.0,69,0.00,,BKN110,0.01,VWS V14.01,2013-05-10 22:38:00,
2013-05-10 18:40:00,66.4,56.3,29.93,North,351,0.0,0.0,70,0.00,,CLR,0.01,VWS V14.01,2013-05-10 22:40:00,
2013-05-10 18:43:00,66.2,55.7,29.93,North,351,0.0,0.0,69,0.00,,BKN110,0.01,VWS V14.01,2013-05-10 22:43:00,
2013-05-10 18:45:00,66.2,56.1,29.93,North,351,0.0,0.0,70,0.00,,CLR,0.01,VWS V14.01,2013-05-10 22:45:00,
2013-05-10 18:48:00,66.2,56.1,29.93,North,351,0.0,0.0,70,0.00,,BKN110,0.01,VWS V14.01,2013-05-10 22:48:00,
2013-05-10 18:50:00,66.0,56.0,29.93,North,351,0.0,0.0,70,0.00,,CLR,0.01,VWS V14.01,2013-05-10 22:50:00,
2013-05-10 18:53:00,65.9,56.2,29.93,North,351,0.0,0.0,71,0.00,,BKN110,0.01,VWS V14.01,2013-05-10 22:53:00,
2013-05-10 18:55:00,65.9,56.2,29.93,North,351,0.0,0.0,71,0.00,,CLR,0.01,VWS V14.01,2013-05-10 22:55:00,
2013-05-10 18:58:00,65.9,56.2,29.93,North,351,0.0,0.0,71,0.00,,BKN110,0.01,VWS V14.01,2013-05-10 22:58:00,
2013-05-10 19:00:00,65.9,56.2,29.93,North,351,0.0,0.0,71,0.00,,CLR,0.01,VWS V14.01,2013-05-10 23:00:00,
2013-05-10 19:03:00,65.7,56.0,29.93,North,351,0.0,0.0,71,0.00,,BKN080,0.01,VWS V14.01,2013-05-10 23:03:00,
2013-05-10 19:05:00,65.7,56.0,29.93,North,351,0.0,0.0,71,0.00,,CLR,0.01,VWS V14.01,2013-05-10 23:05:00,
2013-05-10 19:08:00,65.4,55.4,29.93,North,351,0.0,0.0,70,0.00,,BKN080,0.01,VWS V14.01,2013-05-10 23:08:00,
2013-05-10 19:10:00,65.4,55.4,29.93,North,351,0.0,1.0,70,0.00,,CLR,0.01,VWS V14.01,2013-05-10 23:10:00,
2013-05-10 19:13:00,65.2,55.6,29.93,North,351,0.0,0.0,71,0.00,,BKN080,0.01,VWS V14.01,2013-05-10 23:13:00,
2013-05-10 19:15:00,65.2,55.2,29.94,North,351,0.0,0.0,70,0.00,,CLR,0.01,VWS V14.01,2013-05-10 23:15:00,
2013-05-10 19:18:00,65.0,55.0,29.94,North,351,0.0,0.0,70,0.00,,BKN080,0.01,VWS V14.01,2013-05-10 23:18:00,
2013-05-10 19:20:00,65.0,55.0,29.94,North,351,0.0,0.0,70,0.00,,CLR,0.01,VWS V14.01,2013-05-10 23:20:00,
2013-05-10 19:23:00,64.7,54.3,29.94,North,351,0.0,0.0,69,0.00,,BKN080,0.01,VWS V14.01,2013-05-10 23:23:00,
2013-05-10 19:25:00,64.7,54.3,29.94,North,351,0.0,0.0,69,0.00,,CLR,0.01,VWS V14.01,2013-05-10 23:25:00,
2013-05-10 19:28:00,64.5,54.1,29.94,North,351,0.0,0.0,69,0.00,,BKN080,0.01,VWS V14.01,2013-05-10 23:28:00,
2013-05-10 19:30:00,64.4,54.0,29.94,North,351,0.0,0.0,69,0.00,,CLR,0.01,VWS V14.01,2013-05-10 23:30:00,
2013-05-10 19:33:00,64.2,53.8,29.94,North,351,0.0,0.0,69,0.00,,BKN080,0.01,VWS V14.01,2013-05-10 23:33:00,
2013-05-10 19:35:00,64.1,54.1,29.94,North,351,0.0,0.0,70,0.00,,CLR,0.01,VWS V14.01,2013-05-10 23:35:00,
2013-05-10 19:38:00,63.9,53.9,29.94,North,351,0.0,0.0,70,0.00,,BKN080,0.01,VWS V14.01,2013-05-10 23:38:00,
2013-05-10 19:40:00,63.9,53.9,29.94,North,351,0.0,0.0,70,0.00,,CLR,0.01,VWS V14.01,2013-05-10 23:40:00,
2013-05-10 19:43:00,63.7,54.1,29.94,North,351,0.0,0.0,71,0.00,,BKN080,0.01,VWS V14.01,2013-05-10 23:43:00,
2013-05-10 19:45:00,63.7,54.1,29.94,North,351,0.0,0.0,71,0.00,,CLR,0.01,VWS V14.01,2013-05-10 23:45:00,
2013-05-10 19:48:00,63.6,53.7,29.94,North,351,0.0,0.0,70,0.00,,BKN080,0.01,VWS V14.01,2013-05-10 23:48:00,
2013-05-10 19:50:00,63.4,53.8,29.94,North,351,0.0,0.0,71,0.00,,CLR,0.01,VWS V14.01,2013-05-10 23:50:00,
2013-05-10 19:53:00,63.3,53.8,29.94,North,351,0.0,0.0,71,0.00,,BKN080,0.01,VWS V14.01,2013-05-10 23:53:00,
2013-05-10 19:55:00,63.3,53.8,29.94,North,351,0.0,0.0,71,0.00,,CLR,0.01,VWS V14.01,2013-05-10 23:55:00,
2013-05-10 19:58:00,63.1,53.6,29.94,North,351,0.0,0.0,71,0.00,,BKN080,0.01,VWS V14.01,2013-05-10 23:58:00,
2013-05-10 20:00:00,63.1,53.9,29.94,North,351,0.0,0.0,72,0.00,,CLR,0.01,VWS V14.01,2013-05-11 00:00:00,
2013-05-10 20:03:00,62.9,53.8,29.94,North,351,0.0,0.0,72,0.00,,FEW095,0.01,VWS V14.01,2013-05-11 00:03:00,
2013-05-10 20:05:00,62.8,53.7,29.94,North,351,0.0,0.0,72,0.00,,CLR,0.01,VWS V14.01,2013-05-11 00:05:00,
2013-05-10 20:08:00,62.6,53.5,29.94,North,351,0.0,0.0,72,0.00,,FEW095,0.01,VWS V14.01,2013-05-11 00:08:00,
2013-05-10 20:10:00,62.6,53.5,29.94,North,351,0.0,0.0,72,0.00,,CLR,0.01,VWS V14.01,2013-05-11 00:10:00,
2013-05-10 20:13:00,62.4,53.3,29.94,North,351,0.0,0.0,72,0.00,,FEW095,0.01,VWS V14.01,2013-05-11 00:13:00,
2013-05-10 20:15:00,62.4,53.6,29.95,North,351,0.0,0.0,73,0.00,,CLR,0.01,VWS V14.01,2013-05-11 00:15:00,
2013-05-10 20:18:00,62.3,53.5,29.95,North,351,0.0,0.0,73,0.00,,FEW095,0.01,VWS V14.01,2013-05-11 00:18:00,
2013-05-10 20:20:00,62.3,53.5,29.95,North,351,0.0,0.0,73,0.00,,CLR,0.01,VWS V14.01,2013-05-11 00:20:00,
2013-05-10 20:23:00,62.1,53.3,29.95,North,351,0.0,0.0,73,0.00,,FEW095,0.01,VWS V14.01,2013-05-11 00:23:00,
2013-05-10 20:25:00,62.1,53.7,29.95,North,351,0.0,0.0,74,0.00,,CLR,0.01,VWS V14.01,2013-05-11 00:25:00,
2013-05-10 20:28:00,62.0,53.6,29.95,North,351,0.0,0.0,74,0.00,,FEW095,0.01,VWS V14.01,2013-05-11 00:28:00,
2013-05-10 20:30:00,62.0,53.6,29.95,North,351,0.0,0.0,74,0.00,,CLR,0.01,VWS V14.01,2013-05-11 00:30:00,
2013-05-10 20:33:00,62.0,54.0,29.95,North,351,0.0,1.0,75,0.00,,FEW095,0.01,VWS V14.01,2013-05-11 00:33:00,
2013-05-10 20:35:00,61.8,53.8,29.95,North,351,0.0,1.0,75,0.00,,CLR,0.01,VWS V14.01,2013-05-11 00:35:00,
2013-05-10 20:38:00,61.8,53.8,29.95,North,351,0.0,0.0,75,0.00,,FEW095,0.01,VWS V14.01,2013-05-11 00:38:00,
2013-05-10 20:40:00,61.8,53.8,29.95,North,351,0.0,0.0,75,0.00,,CLR,0.01,VWS V14.01,2013-05-11 00:40:00,
2013-05-10 20:43:00,61.8,53.8,29.95,North,351,0.0,0.0,75,0.00,,FEW095,0.01,VWS V14.01,2013-05-11 00:43:00,
2013-05-10 20:45:00,61.6,53.6,29.95,North,351,0.0,0.0,75,0.00,,CLR,0.01,VWS V14.01,2013-05-11 00:45:00,
2013-05-10 20:48:00,61.5,53.5,29.95,North,351,0.0,0.0,75,0.00,,FEW095,0.01,VWS V14.01,2013-05-11 00:48:00,
2013-05-10 20:50:00,61.5,53.5,29.95,North,351,0.0,0.0,75,0.00,,CLR,0.01,VWS V14.01,2013-05-11 00:50:00,
2013-05-10 20:53:00,61.3,53.3,29.95,North,351,0.0,0.0,75,0.00,,FEW095,0.01,VWS V14.01,2013-05-11 00:53:00,
2013-05-10 20:55:00,61.2,53.2,29.95,North,351,0.0,0.0,75,0.00,,CLR,0.01,VWS V14.01,2013-05-11 00:55:00,
2013-05-10 20:58:00,61.0,53.0,29.95,North,351,0.0,0.0,75,0.00,,FEW095,0.01,VWS V14.01,2013-05-11 00:58:00,
2013-05-10 21:00:00,61.0,53.0,29.95,North,351,0.0,0.0,75,0.00,,CLR,0.01,VWS V14.01,2013-05-11 01:00:00,
2013-05-10 21:03:00,60.8,52.8,29.95,North,351,0.0,0.0,75,0.00,,SCT100,0.01,VWS V14.01,2013-05-11 01:03:00,
2013-05-10 21:05:00,60.8,52.8,29.95,North,351,0.0,0.0,75,0.00,,CLR,0.01,VWS V14.01,2013-05-11 01:05:00,
2013-05-10 21:08:00,60.7,52.7,29.95,North,351,0.0,0.0,75,0.00,,SCT100,0.01,VWS V14.01,2013-05-11 01:08:00,
2013-05-10 21:10:00,60.7,53.1,29.95,North,351,0.0,0.0,76,0.00,,CLR,0.01,VWS V14.01,2013-05-11 01:10:00,
2013-05-10 21:13:00,60.7,53.1,29.95,North,351,0.0,0.0,76,0.00,,SCT100,0.01,VWS V14.01,2013-05-11 01:13:00,
2013-05-10 21:15:00,60.7,53.1,29.96,North,351,0.0,0.0,76,0.00,,CLR,0.01,VWS V14.01,2013-05-11 01:15:00,
2013-05-10 21:18:00,60.5,53.3,29.96,North,351,0.0,0.0,77,0.00,,SCT100,0.01,VWS V14.01,2013-05-11 01:18:00,
2013-05-10 21:20:00,60.5,53.3,29.96,North,351,0.0,0.0,77,0.00,,CLR,0.01,VWS V14.01,2013-05-11 01:20:00,
2013-05-10 21:23:00,60.4,53.2,29.96,North,351,0.0,0.0,77,0.00,,SCT100,0.01,VWS V14.01,2013-05-11 01:23:00,
2013-05-10 21:25:00,60.4,53.2,29.96,North,351,0.0,0.0,77,0.00,,CLR,0.01,VWS V14.01,2013-05-11 01:25:00,
2013-05-10 21:28:00,60.2,53.3,29.96,North,351,0.0,0.0,78,0.00,,SCT100,0.01,VWS V14.01,2013-05-11 01:28:00,
2013-05-10 21:30:00,60.2,53.3,29.96,North,351,0.0,0.0,78,0.00,,CLR,0.01,VWS V14.01,2013-05-11 01:30:00,
2013-05-10 21:33:00,60.1,53.2,29.96,North,351,0.0,0.0,78,0.00,,SCT100,0.01,VWS V14.01,2013-05-11 01:33:00,
2013-05-10 21:35:00,60.1,53.6,29.96,North,351,0.0,0.0,79,0.00,,CLR,0.01,VWS V14.01,2013-05-11 01:35:00,
2013-05-10 21:38:00,59.9,53.7,29.96,North,351,0.0,1.0,80,0.00,,SCT100,0.01,VWS V14.01,2013-05-11 01:38:00,
2013-05-10 21:40:00,59.9,53.7,29.96,North,351,0.0,1.0,80,0.00,,CLR,0.01,VWS V14.01,2013-05-11 01:40:00,
2013-05-10 21:43:00,59.7,53.9,29.96,North,351,0.0,0.0,81,0.00,,SCT100,0.01,VWS V14.01,2013-05-11 01:43:00,
2013-05-10 21:45:00,59.7,53.9,29.96,North,351,0.0,0.0,81,0.00,,CLR,0.01,VWS V14.01,2013-05-11 01:45:00,
2013-05-10 21:48:00,59.4,53.9,29.96,North,351,0.0,0.0,82,0.00,,SCT100,0.01,VWS V14.01,2013-05-11 01:48:00,
2013-05-10 21:50:00,59.4,53.9,29.96,North,351,0.0,0.0,82,0.00,,CLR,0.01,VWS V14.01,2013-05-11 01:50:00,
2013-05-10 21:53:00,59.3,53.8,29.96,North,351,0.0,0.0,82,0.00,,SCT100,0.01,VWS V14.01,2013-05-11 01:53:00,
2013-05-10 21:55:00,59.1,54.0,29.96,North,351,0.0,0.0,83,0.00,,CLR,0.01,VWS V14.01,2013-05-11 01:55:00,
2013-05-10 21:58:00,59.0,53.8,29.96,North,351,0.0,0.0,83,0.00,,SCT100,0.01,VWS V14.01,2013-05-11 01:58:00,
2013-05-10 22:00:00,59.0,53.8,29.96,North,351,0.0,0.0,83,0.00,,CLR,0.01,VWS V14.01,2013-05-11 02:00:00,
2013-05-10 22:03:00,58.8,54.0,29.96,North,351,0.0,0.0,84,0.00,,BKN110,0.01,VWS V14.01,2013-05-11 02:03:00,
2013-05-10 22:05:00,58.8,54.0,29.96,North,351,0.0,3.0,84,0.00,,CLR,0.01,VWS V14.01,2013-05-11 02:05:00,
2013-05-10 22:08:00,58.6,53.8,29.96,North,351,0.0,0.0,84,0.00,,BKN110,0.01,VWS V14.01,2013-05-11 02:08:00,
2013-05-10 22:10:00,58.5,53.7,29.96,North,351,0.0,0.0,84,0.00,,CLR,0.01,VWS V14.01,2013-05-11 02:10:00,
2013-05-10 22:13:00,58.3,53.8,29.96,North,351,0.0,0.0,85,0.00,,BKN110,0.01,VWS V14.01,2013-05-11 02:13:00,
2013-05-10 22:15:00,58.2,53.7,29.95,North,351,0.0,0.0,85,0.00,,CLR,0.01,VWS V14.01,2013-05-11 02:15:00,
2013-05-10 22:18:00,58.2,53.7,29.95,North,351,0.0,0.0,85,0.00,,BKN110,0.01,VWS V14.01,2013-05-11 02:18:00,
2013-05-10 22:20:00,58.0,53.5,29.95,North,351,0.0,0.0,85,0.00,,CLR,0.01,VWS V14.01,2013-05-11 02:20:00,
2013-05-10 22:23:00,58.0,53.8,29.95,North,351,0.0,0.0,86,0.00,,BKN110,0.01,VWS V14.01,2013-05-11 02:23:00,
2013-05-10 22:25:00,57.9,53.7,29.95,North,351,0.0,0.0,86,0.00,,CLR,0.01,VWS V14.01,2013-05-11 02:25:00,
2013-05-10 22:28:00,57.9,53.7,29.95,North,351,0.0,0.0,86,0.00,,BKN110,0.01,VWS V14.01,2013-05-11 02:28:00,
2013-05-10 22:30:00,57.7,53.5,29.95,North,351,0.0,0.0,86,0.00,,CLR,0.01,VWS V14.01,2013-05-11 02:30:00,
2013-05-10 22:33:00,57.7,53.9,29.95,North,351,0.0,0.0,87,0.00,,BKN110,0.01,VWS V14.01,2013-05-11 02:33:00,
2013-05-10 22:35:00,57.6,53.8,29.95,North,351,0.0,0.0,87,0.00,,CLR,0.01,VWS V14.01,2013-05-11 02:35:00,
2013-05-10 22:38:00,57.6,53.8,29.95,North,351,0.0,0.0,87,0.00,,BKN110,0.01,VWS V14.01,2013-05-11 02:38:00,
2013-05-10 22:40:00,57.4,53.6,29.95,North,351,0.0,2.0,87,0.00,,CLR,0.01,VWS V14.01,2013-05-11 02:40:00,
2013-05-10 22:43:00,57.3,53.5,29.95,North,351,0.0,1.0,87,0.00,,BKN110,0.01,VWS V14.01,2013-05-11 02:43:00,
2013-05-10 22:45:00,57.1,53.3,29.96,North,351,0.0,1.0,87,0.00,,CLR,0.01,VWS V14.01,2013-05-11 02:45:00,
2013-05-10 22:48:00,57.0,53.2,29.96,North,357,0.0,3.0,87,0.00,,BKN110,0.01,VWS V14.01,2013-05-11 02:48:00,
2013-05-10 22:50:00,56.8,53.3,29.96,North,357,0.0,3.0,88,0.00,,CLR,0.01,VWS V14.01,2013-05-11 02:50:00,
2013-05-10 22:53:00,56.7,53.2,29.96,North,357,0.0,0.0,88,0.00,,BKN110,0.01,VWS V14.01,2013-05-11 02:53:00,
2013-05-10 22:55:00,56.7,53.2,29.96,North,357,0.0,0.0,88,0.00,,CLR,0.01,VWS V14.01,2013-05-11 02:55:00,
2013-05-10 22:58:00,56.5,53.0,29.96,North,357,0.0,0.0,88,0.00,,BKN110,0.01,VWS V14.01,2013-05-11 02:58:00,
2013-05-10 23:00:00,56.5,53.0,29.95,North,357,0.0,0.0,88,0.00,,CLR,0.01,VWS V14.01,2013-05-11 03:00:00,
2013-05-10 23:03:00,56.4,52.9,29.95,North,357,0.0,0.0,88,0.00,,BKN085,0.01,VWS V14.01,2013-05-11 03:03:00,
2013-05-10 23:05:00,56.4,52.9,29.95,North,357,0.0,0.0,88,0.00,,CLR,0.01,VWS V14.01,2013-05-11 03:05:00,
2013-05-10 23:08:00,56.2,52.7,29.95,North,357,0.0,0.0,88,0.00,,BKN085,0.01,VWS V14.01,2013-05-11 03:08:00,
2013-05-10 23:10:00,56.2,52.7,29.95,North,357,0.0,0.0,88,0.00,,CLR,0.01,VWS V14.01,2013-05-11 03:10:00,
2013-05-10 23:13:00,56.1,52.9,29.95,North,357,0.0,0.0,89,0.00,,BKN085,0.01,VWS V14.01,2013-05-11 03:13:00,
2013-05-10 23:15:00,56.1,52.9,29.95,North,357,0.0,0.0,89,0.00,,CLR,0.01,VWS V14.01,2013-05-11 03:15:00,
2013-05-10 23:18:00,55.9,52.7,29.95,North,357,0.0,0.0,89,0.00,,BKN085,0.01,VWS V14.01,2013-05-11 03:18:00,
2013-05-10 23:20:00,55.9,52.7,29.95,North,357,0.0,0.0,89,0.00,,CLR,0.01,VWS V14.01,2013-05-11 03:20:00,
2013-05-10 23:23:00,55.7,52.5,29.95,North,357,0.0,0.0,89,0.00,,BKN085,0.01,VWS V14.01,2013-05-11 03:23:00,
2013-05-10 23:25:00,55.7,52.5,29.95,North,357,0.0,0.0,89,0.00,,CLR,0.01,VWS V14.01,2013-05-11 03:25:00,
2013-05-10 23:28:00,55.6,52.7,29.95,North,357,0.0,0.0,90,0.00,,BKN085,0.01,VWS V14.01,2013-05-11 03:28:00,
2013-05-10 23:30:00,55.6,52.7,29.95,North,357,0.0,0.0,90,0.00,,CLR,0.01,VWS V14.01,2013-05-11 03:30:00,
2013-05-10 23:33:00,55.6,52.7,29.95,North,357,0.0,1.0,90,0.00,,BKN085,0.01,VWS V14.01,2013-05-11 03:33:00,
2013-05-10 23:35:00,55.4,52.5,29.95,North,357,0.0,1.0,90,0.00,,CLR,0.01,VWS V14.01,2013-05-11 03:35:00,
2013-05-10 23:38:00,55.4,52.5,29.95,North,357,0.0,0.0,90,0.00,,BKN085,0.01,VWS V14.01,2013-05-11 03:38:00,
2013-05-10 23:40:00,55.4,52.5,29.95,North,357,0.0,0.0,90,0.00,,CLR,0.01,VWS V14.01,2013-05-11 03:40:00,
2013-05-10 23:43:00,55.4,52.5,29.95,North,357,0.0,0.0,90,0.00,,BKN085,0.01,VWS V14.01,2013-05-11 03:43:00,
2013-05-10 23:45:00,55.4,52.5,29.94,North,357,0.0,0.0,90,0.00,,CLR,0.01,VWS V14.01,2013-05-11 03:45:00,
2013-05-10 23:48:00,55.4,52.5,29.94,North,357,0.0,0.0,90,0.00,,BKN085,0.01,VWS V14.01,2013-05-11 03:48:00,
2013-05-10 23:50:00,55.4,52.5,29.94,North,357,0.0,0.0,90,0.00,,CLR,0.01,VWS V14.01,2013-05-11 03:50:00,
2013-05-10 23:53:00,55.4,52.5,29.94,North,357,0.0,0.0,90,0.00,,BKN085,0.01,VWS V14.01,2013-05-11 03:53:00,
2013-05-10 23:55:00,55.4,52.5,29.94,North,357,0.0,0.0,90,0.00,,CLR,0.01,VWS V14.01,2013-05-11 03:55:00,
2013-05-10 23:58:00,55.4,52.5,29.94,North,357,0.0,0.0,90,0.00,,BKN085,0.01,VWS V14.01,2013-05-11 03:58:00,